Theta_e
296 294 294 294 293 293 293 293 294 293 293 293 292 292 291 290 289 289 288 287 287 286
292 291 290 290 291 290 291 290 290 290 289 289 289 288 287 286 285 285 284 284 284 284
288 288 288 287 286 286 286 288 286 285 285 285 285 284 284 283 282 281 281 281 281 281
286 286 285 284 284 283 284 284 283 282 282 281 281 281 281 280 280 279 279 280 279 279
283 283 282 281 281 281 280 281 280 280 280 279 279 279 279 278 278 278 277 278 278 277
280 280 280 280 280 280 279 278 278 278 278 278 278 278 278 278 277 276 276 276 276 276
279 279 279 280 280 280 280 279 279 278 277 277 276 276 276 276 276 276 276 276 275 275
279 279 279 279 279 279 279 279 279 278 278 278 278 277 275 275 274 274 274 275 276 275
277 277 278 278 279 279 278 278 278 277 277 277 278 279 279 276 274 274 273 272 273 275
276 276 276 277 277 276 277 278 278 278 277 276 277 279 278 277 275 274 273 272 271 272
275 275 275 275 274 275 276 275 276 276 277 277 278 279 278 277 274 273 273 272 271 270
274 273 274 273 273 274 274 274 274 275 275 276 276 279 279 276 274 273 272 272 271 270
273 272 272 272 272 273 273 273 273 273 273 274 275 278 278 276 273 271 271 271 270 271
272 272 272 272 272 272 271 271 271 272 272 273 273 275 277 276 272 271 269 268 266 267
Wind_Speed
17 13 13 16 13 11 11 12 15 15 17 18 17 17 16 14 13 14 14 14 11 10
16 20 19 18 16 12 12 13 17 19 19 20 16 17 15 14 14 15 12 14 11 12
18 18 23 18 20 16 15 16 18 19 18 20 19 18 17 16 15 15 12 10 13 11
19 20 22 21 18 18 16 19 25 19 18 19 21 18 17 18 15 17 13 12 13 13
20 22 25 22 22 19 21 20 20 19 20 19 18 17 18 17 15 16 15 14 14 14
23 23 23 23 21 18 20 21 20 19 19 18 17 17 16 15 15 14 14 13 13 13
22 22 21 20 20 20 18 20 20 19 18 17 15 14 14 14 13 13 12 11 12 11
20 20 20 19 21 18 18 19 17 17 17 16 14 11 11 12 12 11 10 10 9 10
18 18 17 20 18 16 19 18 16 17 16 16 12 23 22 14 10 11 11 11 12 11
17 19 18 16 16 17 17 14 16 15 16 16 14 22 21 20 10 11 11 12 12 13
16 17 15 15 16 15 12 13 13 15 14 14 15 24 20 18 13 12 11 10 12 13
14 14 13 15 13 12 11 11 12 11 13 13 14 24 22 15 11 11 10 10 12 12
13 12 14 13 11 10 12 11 10 13 12 14 12 23 23 17 9 10 9 10 12 16
12 13 12 11 10 10 11 11 9 10 9 10 10 13 21 21 11 10 8 8 9 10
Wind_Direction
61 74 67 67 62 56 64 61 71 68 69 69 67 68 73 69 66 55 56 50 56 65
74 74 70 65 66 61 56 74 69 66 64 63 66 72 63 65 62 61 58 51 38 53
71 72 74 64 61 56 56 62 76 61 63 61 59 61 68 64 62 66 58 57 58 54
68 73 76 68 62 59 62 57 60 61 63 65 60 60 66 65 63 66 67 58 53 50
70 69 71 68 63 54 60 62 66 65 65 66 66 64 66 67 61 59 54 50 51 45
68 65 68 72 72 73 73 70 69 69 67 63 60 62 62 64 64 61 56 49 47 41
68 71 70 71 72 67 65 72 68 64 66 66 62 59 56 56 56 54 50 53 51 36
69 69 70 73 69 68 65 67 68 70 66 63 62 59 58 60 59 54 49 44 40 41
72 76 73 68 70 71 70 68 66 63 63 60 56 56 57 61 58 52 43 36 25 22
69 68 66 70 69 63 63 65 66 67 65 61 51 48 47 45 46 46 39 32 25 15
65 66 65 64 63 62 63 62 59 59 58 55 47 45 37 40 38 34 33 28 24 15
67 69 67 65 63 61 62 63 57 51 47 48 44 36 37 30 30 22 17 16 20 8
61 65 61 60 59 57 56 60 54 53 43 33 31 29 29 34 17 9 10 9 7 2
64 63 61 59 54 56 55 51 48 53 49 36 18 24 26 26 19 10 7 352 354 355